Location: Ergnies
(50.0854°N, 2.0375°E)
Time: 14:17:43
(UTC+00:00)

Cosmos 1707 Rocket - Visible Passes

Search period start: 11 April 2026 00:00
Search period end: 21 April 2026 00:00
Orbit: 598 x 624 km, 82.5° (Epoch: 11 April)

Date Brightness Start Highest point End Pass type
(mag) Time Alt. Az. Time Alt. Az. Time Alt. Az.
11 Apr 5.9 20:06:13 10° NW 20:09:41 24° W 20:13:06 10° SW visible
12 Apr 6.4 20:21:46 10° NW 20:24:13 15° W 20:26:39 10° WSW visible
14 Apr 4.8 19:12:25 10° NNW 19:16:32 46° W 19:20:37 10° SSW visible
15 Apr 5.8 19:27:29 10° NNW 19:31:10 28° W 19:34:50 10° SSW visible
16 Apr 6.4 19:42:51 10° NW 19:45:43 18° W 19:48:35 10° SW visible
17 Apr 7.0 19:59:08 10° WNW 20:00:13 11° W 20:01:17 10° W visible
